[[{"header":{"parameterUnit":"m.s-1","parameterCategory":2,"la1":30.2991,"la2":30.254,"lo1":-89.0895,"lo2":-89.0444,"dy":0.0017,"dx":0.0017,"nx":28,"ny":28,"refTime":"2024-06-05T09:00:00:Z","depth":"0","parameterNumber":2,"parameterNumberName":"U-component_of_CURRENTS"},"data":[0,0,0,0,0,0,0,0,0,0,0,0,0,0,0,0,0,0,0,0,0,0,0,0,0,0,0,0,0,0,0,0,0,0,0,0,0,0,0,0,0,0,0,0,0,0,0,0,0,0,0,0,0,0,0,0,0,0,0.2608,0.2608,0,0.2602,0.2602,0.2602,0.2582,0.2582,0.2581,0.2581,0.2547,0.2546,0.2546,0,0,0,0,0,0,0,0,0,0,0,0,0,0.2614,0.2614,0.2608,0.2608,0.2608,0.2602,0.2602,0.2602,0.2582,0.2582,0.2581,0.2581,0.2547,0.2546,0.2545,0,0,0,0,0,0,0,0,0,0,0,0,0,0.2609,0.2613,0.2608,0.2598,0.2598,0.2602,0.2602,0.2602,0.2582,0.2582,0.2581,0.2581,0.2547,0.2546,0.2545,0.2551,0,0,0.2543,0.2542,0,0,0,0,0,0,0,0,0.2609,0.2609,0.26,0.2599,0.2598,0.2593,0.2591,0.2584,0.2582,0.2587,0.2581,0.258,0.2561,0.2559,0.2558,0.2549,0.2547,0.2543,0.2542,0.2542,0.2541,0,0,0,0,0,0,0,0.2609,0.2609,0.2605,0.26,0.2599,0.2598,0.2597,0.259,0.2576,0.2586,0.2585,0.2586,0.256,0.2559,0.2557,0.2547,0.2543,0.2542,0.2541,0.2541,0.2571,0.2572,0,0,0,0,0,0,0.2612,0.2609,0.2605,0.2605,0.2604,0.2598,0.2597,0.2594,0.2576,0.2573,0.2587,0.2585,0.256,0.2558,0.2555,0.2585,0.2542,0.2541,0.254,0.257,0.2572,0.2573,0,0,0,0,0,0,0.2612,0.2612,0.2605,0.2608,0.2607,0.2599,0.2597,0.2595,0.2596,0.2577,0.2573,0.259,0.256,0.2557,0.256,0.2583,0.254,0.254,0.2568,0.257,0.2572,0.2629,0,0,0,0,0,0,0.2612,0.2612,0.2613,0.2608,0.2607,0.2612,0.2597,0.2595,0.2597,0.2596,0.2579,0.2575,0.2559,0.2561,0.2559,0.2581,0.2539,0.2567,0.2569,0.2572,0.2625,0.2633,0.2639,0,0,0,0,0,0.2613,0.2613,0.2613,0.2612,0.2608,0.2612,0.2612,0.2604,0.2598,0.2602,0.2596,0.2575,0.2576,0.2562,0.2558,0.258,0.2565,0.2569,0.2571,0.2622,0.2631,0.2639,0,0,0,0,0,0,0.2614,0.2612,0.2611,0.261,0.2614,0.2609,0.2611,0.2609,0.2608,0.2607,0.2587,0.2584,0.2596,0.2583,0.2568,0.2598,0.2569,0.2572,0.2609,0.2617,0.2624,0.2615,0.2538,0,0,0,0,0,0.2617,0.2616,0.2618,0.2618,0.2621,0.2619,0.262,0.2619,0.2617,0.2615,0.2602,0.2598,0.2607,0.2607,0.2603,0.2617,0.2613,0.2632,0.2639,0.2644,0.2637,0.2667,0.2675,0.2583,0.2583,0.2583,0,0,0.2615,0.2616,0.2614,0.2618,0.2619,0.263,0.2618,0.2625,0.2636,0.2612,0.2617,0.2616,0.2615,0.2633,0.2638,0.2624,0.267,0.2648,0.2653,0.2642,0.2671,0.268,0.2688,0.2585,0.2584,0.2584,0,0,0.2617,0.2616,0.2618,0.2627,0.2636,0.2639,0.2644,0.2644,0.2647,0.2662,0.2651,0.2663,0.2666,0.2671,0.2677,0.2719,0.2703,0.2723,0.275,0.2781,0.2788,0.2795,0.2808,0.2815,0.2729,0.2729,0.2729,0,0.2618,0.2619,0.2621,0.2632,0.264,0.2646,0.2658,0.2668,0.2669,0.2677,0.2671,0.2692,0.2687,0.2719,0.2735,0.2733,0.2742,0.272,0.2789,0.2796,0.2801,0.2813,0.282,0.2732,0.2731,0.2731,0.2731,0,0.2623,0.2629,0.2633,0.2649,0.2661,0.2671,0.2689,0.2701,0.271,0.272,0.2748,0.2748,0.2761,0.2771,0.2766,0.2808,0.2799,0.2793,0.2767,0.2814,0.2823,0.283,0.2736,0.2735,0.2734,0.2733,0,0,0.261,0.2631,0.2633,0.264,0.267,0.2676,0.2711,0.2737,0.276,0.2774,0.2805,0.2824,0.2823,0.2829,0.2828,0.2852,0.2904,0.2842,0.2842,0.2852,0.2965,0.2925,0.2928,0.2917,0.2918,0.2919,0.2958,0,0.2612,0.263,0.2644,0.2663,0.2674,0.2699,0.273,0.276,0.2787,0.282,0.2842,0.2869,0.2849,0.2864,0.2887,0.2903,0.2923,0.2893,0.292,0.292,0.2877,0.2935,0.281,0.283,0.2964,0.2965,0.2965,0,0.261,0.2623,0.264,0.2669,0.2676,0.2693,0.274,0.2768,0.2828,0.2857,0.2893,0.2909,0.2949,0.2928,0.2973,0.2958,0.2961,0.2968,0.297,0.2912,0.2892,0.2804,0.2837,0.2762,0.2975,0.2974,0.2974,0,0.259,0.2616,0.2625,0.2635,0.2676,0.269,0.2715,0.2773,0.281,0.2877,0.292,0.2961,0.2994,0.3012,0.3026,0.3008,0.3075,0.3054,0.3015,0.3011,0.2897,0.2881,0.2853,0.308,0.308,0.3079,0.3079,0,0.258,0.2585,0.2612,0.2616,0.2638,0.2672,0.2711,0.275,0.2824,0.287,0.2928,0.2974,0.3019,0.306,0.3056,0.3062,0.3102,0.3024,0.3025,0.2914,0.29,0.2821,0.2788,0.3081,0.3081,0.308,0.308,0,0.255,0.2567,0.2578,0.2614,0.2625,0.2639,0.2705,0.2733,0.2814,0.2882,0.2909,0.3005,0.3058,0.3093,0.3132,0.3101,0.3015,0.3096,0.2956,0.2939,0.281,0.2784,0.264,0.2563,0.3053,0.3052,0.3052,0,0.2534,0.2537,0.2566,0.2571,0.2581,0.2614,0.2638,0.2718,0.2755,0.2887,0.2912,0.3006,0.3051,0.311,0.3085,0.3082,0.2986,0.2948,0.2883,0.2792,0.2765,0.2649,0.2587,0.2757,0.2754,0.2752,0.275,0,0.2509,0.2517,0.2526,0.2537,0.2549,0.2573,0.2612,0.2647,0.274,0.2799,0.2878,0.2932,0.301,0.2962,0.2975,0.2949,0.2792,0.2897,0.284,0.2562,0.2395,0.2324,0.2741,0.2729,0.2731,0.2732,0.2734,0.2734,0.2487,0.2483,0.2492,0.2487,0.2502,0.2506,0.2492,0.2545,0.2588,0.2638,0.2769,0.2798,0.2827,0.2833,0.2794,0.2656,0.2651,0.2545,0.2533,0.2433,0.2314,0.268,0.2648,0.2649,0.2651,0.2652,0.2653,0,0.2444,0.2438,0.244,0.2421,0.239,0.2427,0.2444,0.2411,0.2399,0.2497,0.2544,0.2568,0.2522,0.2524,0.2425,0.2305,0.2191,0.2228,0.2036,0.2004,0.2366,0.231,0.2156,0.2156,0.2156,0.2156,0.2156,0.2156,0.2425,0.2393,0.2377,0.23,0.2281,0.2212,0.2193,0.2165,0.22,0.2183,0.2187,0.2241,0.23,0.2226,0.2076,0.2024,0.1866,0.1758,0.1779,0.2045,0.2073,0.21,0.204,0.1832,0.1831,0.1313,0.1309,0.1306]},{"header":{"parameterUnit":"m.s-1","parameterCategory":2,"la1":30.2991,"la2":30.254,"lo1":-89.0895,"lo2":-89.0444,"dy":0.0017,"dx":0.0017,"nx":28,"ny":28,"refTime":"2024-06-05T09:00:00:Z","depth":"0","parameterNumber":3,"parameterNumberName":"V-component_of_CURRENTS"},"data":[0,0,0,0,0,0,0,0,0,0,0,0,0,0,0,0,0,0,0,0,0,0,0,0,0,0,0,0,0,0,0,0,0,0,0,0,0,0,0,0,0,0,0,0,0,0,0,0,0,0,0,0,0,0,0,0,0,0,0.019,0.019,0,0.0173,0.0173,0.0173,0.0155,0.0155,0.0155,0.0154,0.0123,0.0122,0.0121,0,0,0,0,0,0,0,0,0,0,0,0,0,0.0169,0.017,0.019,0.019,0.019,0.0173,0.0173,0.0173,0.0155,0.0155,0.0155,0.0154,0.0123,0.0122,0.0121,0,0,0,0,0,0,0,0,0,0,0,0,0,0.0168,0.017,0.019,0.0179,0.0178,0.0173,0.0173,0.0173,0.0155,0.0155,0.0154,0.0154,0.0123,0.0122,0.0121,0.0123,0,0,0.0118,0.0118,0,0,0,0,0,0,0,0,0.0168,0.0169,0.0181,0.018,0.0178,0.0166,0.0154,0.0155,0.0155,0.0164,0.0154,0.0154,0.0136,0.0134,0.0132,0.0121,0.012,0.0118,0.0118,0.0117,0.0117,0,0,0,0,0,0,0,0.0168,0.0169,0.0183,0.0181,0.0179,0.0162,0.0162,0.0154,0.0152,0.0163,0.0162,0.016,0.0135,0.0133,0.0131,0.0119,0.0118,0.0118,0.0117,0.0117,0.0109,0.0109,0,0,0,0,0,0,0.0173,0.0169,0.0184,0.0183,0.0172,0.0163,0.0162,0.017,0.0152,0.0149,0.016,0.0159,0.0135,0.0132,0.013,0.0142,0.0117,0.0117,0.0116,0.0108,0.0109,0.0109,0,0,0,0,0,0,0.0173,0.0175,0.0184,0.0175,0.0175,0.0164,0.0172,0.017,0.017,0.015,0.0147,0.0163,0.0134,0.0131,0.013,0.014,0.0116,0.0115,0.0108,0.0108,0.0109,0.0159,0,0,0,0,0,0,0.0173,0.0175,0.0181,0.0176,0.0176,0.019,0.0173,0.017,0.0169,0.0168,0.0151,0.0148,0.0134,0.0132,0.0129,0.0138,0.0115,0.0107,0.0108,0.0109,0.0157,0.0161,0.0164,0,0,0,0,0,0.0172,0.0185,0.0182,0.0183,0.0185,0.019,0.0189,0.0179,0.017,0.0176,0.0164,0.0148,0.0133,0.0131,0.0128,0.0137,0.0107,0.0108,0.0109,0.0155,0.016,0.0164,0,0,0,0,0,0,0.0179,0.0185,0.018,0.0195,0.0195,0.0187,0.019,0.0183,0.0179,0.0176,0.0156,0.0153,0.0153,0.0139,0.0137,0.0136,0.0116,0.0117,0.0152,0.0157,0.0161,0.0173,0.0114,0,0,0,0,0,0.0184,0.0196,0.0195,0.0206,0.0207,0.0199,0.0199,0.0195,0.019,0.0187,0.0174,0.0161,0.0154,0.0151,0.014,0.0144,0.0124,0.0146,0.015,0.0153,0.016,0.0142,0.0145,0.0112,0.0112,0.0112,0,0,0.0189,0.0193,0.0199,0.0208,0.0205,0.0219,0.0198,0.0204,0.0217,0.0185,0.0193,0.0174,0.0157,0.016,0.0159,0.015,0.0151,0.0154,0.0158,0.0163,0.0143,0.0147,0.0149,0.0112,0.0112,0.0112,0,0,0.0209,0.021,0.0227,0.0232,0.0235,0.0233,0.0237,0.0234,0.0234,0.0241,0.0219,0.0207,0.0198,0.0187,0.0182,0.0201,0.0171,0.0194,0.0227,0.0209,0.0212,0.0214,0.0189,0.0189,0.0198,0.0198,0.0198,0,0.0213,0.0239,0.0232,0.0251,0.026,0.0243,0.0267,0.0267,0.0263,0.0267,0.0251,0.0233,0.0213,0.022,0.0223,0.0211,0.0193,0.0212,0.0215,0.0217,0.0218,0.0192,0.0191,0.0201,0.02,0.02,0.02,0,0.0248,0.0268,0.0278,0.03,0.0308,0.0324,0.0326,0.0331,0.0325,0.0321,0.0322,0.0292,0.0281,0.027,0.0253,0.0255,0.0236,0.0221,0.0206,0.0225,0.0196,0.0194,0.0204,0.0203,0.0203,0.0202,0,0,0.0266,0.0298,0.0304,0.0326,0.0338,0.0353,0.0373,0.039,0.041,0.039,0.041,0.0381,0.0354,0.0345,0.0316,0.0299,0.0285,0.0268,0.0265,0.0247,0.0241,0.0242,0.0239,0.0271,0.0272,0.0272,0.0215,0,0.0298,0.0348,0.0354,0.0402,0.0429,0.0425,0.0449,0.0459,0.0459,0.0471,0.0437,0.0441,0.0387,0.0384,0.0356,0.031,0.0282,0.0301,0.0221,0.0219,0.0221,0.0238,0.0275,0.023,0.0212,0.0212,0.0212,0,0.0336,0.0367,0.0421,0.0465,0.0476,0.0499,0.0536,0.0558,0.0564,0.0564,0.0548,0.0519,0.0491,0.0445,0.0365,0.038,0.0312,0.0268,0.0265,0.0249,0.0217,0.0208,0.0226,0.0156,0.0208,0.0209,0.0209,0,0.0365,0.0416,0.0464,0.0479,0.0522,0.0545,0.0566,0.0584,0.0621,0.0624,0.0647,0.0593,0.0585,0.0496,0.0395,0.038,0.0308,0.0275,0.0208,0.0206,0.0215,0.0214,0.0162,0.0213,0.0213,0.0213,0.0213,0,0.0404,0.0443,0.0483,0.0512,0.0575,0.0585,0.0649,0.0662,0.0695,0.0754,0.0696,0.0726,0.0599,0.0542,0.0427,0.032,0.0327,0.0219,0.0198,0.0232,0.0234,0.0154,0.0107,0.0211,0.0211,0.0212,0.0212,0,0.0433,0.0457,0.0518,0.057,0.0593,0.0638,0.0714,0.0762,0.0781,0.0857,0.0866,0.0832,0.0763,0.0628,0.0493,0.038,0.0228,0.0221,0.0268,0.0253,0.0123,0.0077,-0.0013,-0.0041,0.0137,0.0137,0.0137,0,0.0453,0.0488,0.0564,0.0609,0.0637,0.0706,0.0762,0.0804,0.0866,0.0933,0.0978,0.0935,0.0933,0.073,0.0528,0.0335,0.0236,0.0223,0.0198,0.013,0.0062,0.0021,0.0002,0.0219,0.022,0.022,0.0221,0,0.0493,0.0519,0.0571,0.0663,0.073,0.0816,0.0897,0.0963,0.1031,0.1103,0.1182,0.1187,0.1007,0.0848,0.0578,0.0427,0.0192,0.0225,0.0146,0.012,0.0082,0.0041,0.0232,0.0224,0.0224,0.0224,0.0224,0.0223,0.0522,0.0565,0.0636,0.0725,0.0806,0.0917,0.0997,0.1099,0.1223,0.1345,0.1338,0.1387,0.114,0.0791,0.0576,0.0235,0.0216,0.0136,0.0083,0.0046,0.0033,0.0232,0.0207,0.0206,0.0206,0.0206,0.0205,0,0.056,0.0614,0.0695,0.0803,0.0897,0.0937,0.1085,0.1181,0.1341,0.1463,0.1543,0.1482,0.1184,0.0843,0.0382,0.0149,0.0051,0.0019,-0.0027,-0.0043,0.0132,0.0151,0.0125,0.0125,0.0125,0.0125,0.0125,0.0125,0.0582,0.0662,0.0705,0.086,0.094,0.1077,0.1167,0.1323,0.1449,0.1617,0.168,0.1692,0.1461,0.066,0.0146,0.0017,-0.0133,-0.017,-0.0253,-0.0128,-0.0121,-0.0114,-0.0106,-0.0186,-0.0187,-0.0382,-0.0384,-0.0386]}],[{"header":{"parameterUnit":"m.s-1","parameterCategory":2,"la1":30.2991,"la2":30.254,"lo1":-89.0895,"lo2":-89.0444,"dy":0.0017,"dx":0.0017,"nx":28,"ny":28,"refTime":"2024-06-05T09:00:00:Z","depth":"2","parameterNumber":2,"parameterNumberName":"U-component_of_CURRENTS"},"data":[0,0,0,0,0,0,0,0,0,0,0,0,0,0,0,0,0,0,0,0,0,0,0,0,0,0,0,0,0,0,0,0,0,0,0,0,0,0,0,0,0,0,0,0,0,0,0,0,0,0,0,0,0,0,0,0,0,0,0.2122,0.2122,0,0.2124,0.2124,0.2124,0.2118,0.2118,0.2118,0.2118,0.2109,0.2109,0.2108,0,0,0,0,0,0,0,0,0,0,0,0,0,0.2126,0.2125,0.2122,0.2122,0.2122,0.2124,0.2124,0.2124,0.2118,0.2118,0.2118,0.2118,0.2109,0.2109,0.2108,0,0,0,0,0,0,0,0,0,0,0,0,0,0.2125,0.2125,0.2122,0.212,0.212,0.2124,0.2124,0.2124,0.2118,0.2118,0.2118,0.2117,0.2109,0.2109,0.2108,0.2111,0,0,0.2108,0.2108,0,0,0,0,0,0,0,0,0.2125,0.2124,0.212,0.212,0.212,0.2121,0.2122,0.2119,0.2118,0.2118,0.2118,0.2117,0.2112,0.2112,0.2112,0.211,0.211,0.2108,0.2108,0.2108,0.2108,0,0,0,0,0,0,0,0.2125,0.2124,0.2122,0.212,0.212,0.2123,0.2123,0.2121,0.2115,0.2118,0.2118,0.2119,0.2112,0.2112,0.2112,0.211,0.2108,0.2108,0.2107,0.2107,0.2152,0.2153,0,0,0,0,0,0,0.2125,0.2124,0.2122,0.2122,0.2123,0.2123,0.2123,0.212,0.2116,0.2115,0.2119,0.2119,0.2112,0.2112,0.2111,0.2151,0.2108,0.2107,0.2107,0.215,0.2152,0.2153,0,0,0,0,0,0,0.2125,0.2125,0.2122,0.2124,0.2124,0.2123,0.2121,0.212,0.2128,0.2117,0.2116,0.2128,0.2112,0.2111,0.2124,0.2149,0.2107,0.2107,0.2149,0.2151,0.2153,0.2206,0,0,0,0,0,0,0.2125,0.2125,0.2128,0.2124,0.2124,0.213,0.2121,0.2121,0.2129,0.2129,0.2124,0.2123,0.2112,0.2124,0.2124,0.2148,0.2107,0.2147,0.215,0.2152,0.2202,0.2209,0.2215,0,0,0,0,0,0.2125,0.2127,0.2128,0.2128,0.2127,0.213,0.2131,0.2129,0.213,0.2136,0.2138,0.2123,0.2139,0.2125,0.2124,0.2149,0.2146,0.2149,0.2152,0.2199,0.2208,0.2215,0,0,0,0,0,0,0.213,0.2127,0.2128,0.2128,0.2133,0.213,0.2135,0.2137,0.2143,0.2147,0.2136,0.2135,0.2155,0.2146,0.2131,0.217,0.2142,0.2145,0.2179,0.2186,0.2193,0.2185,0.2107,0,0,0,0,0,0.2133,0.2133,0.2134,0.2136,0.2139,0.2141,0.2145,0.2147,0.215,0.2153,0.2148,0.2152,0.2166,0.2171,0.2173,0.2192,0.2189,0.2209,0.2216,0.2221,0.2216,0.2247,0.2255,0.2163,0.2163,0.2163,0,0,0.2133,0.2134,0.2133,0.2137,0.214,0.2151,0.2143,0.2153,0.2167,0.2151,0.2166,0.2171,0.2175,0.2199,0.2208,0.2195,0.2248,0.2225,0.2229,0.2221,0.2251,0.226,0.2267,0.2165,0.2165,0.2164,0,0,0.2136,0.2138,0.214,0.2148,0.216,0.2164,0.217,0.2174,0.2182,0.2203,0.2199,0.2218,0.223,0.2238,0.2246,0.2289,0.2279,0.2296,0.2324,0.2355,0.2363,0.2369,0.2382,0.2389,0.2302,0.2302,0.2302,0,0.214,0.214,0.2143,0.2154,0.2162,0.2172,0.2183,0.2197,0.2205,0.2218,0.2216,0.225,0.2251,0.2286,0.2303,0.2303,0.2314,0.2295,0.2363,0.237,0.2376,0.2387,0.2394,0.2305,0.2304,0.2304,0.2304,0,0.2144,0.2151,0.2155,0.217,0.2183,0.2194,0.2214,0.2231,0.2248,0.2261,0.2297,0.2305,0.2325,0.2337,0.2334,0.238,0.2372,0.2366,0.2342,0.2388,0.2397,0.2404,0.2309,0.2308,0.2307,0.2306,0,0,0.2134,0.2153,0.2155,0.2162,0.2193,0.2199,0.2237,0.2265,0.2292,0.2315,0.2351,0.2378,0.2384,0.2393,0.2397,0.2422,0.2476,0.2416,0.2417,0.2425,0.2539,0.2484,0.2486,0.249,0.2491,0.2493,0.253,0,0.2136,0.215,0.2164,0.2184,0.2192,0.2221,0.2252,0.2286,0.2321,0.2359,0.2388,0.2422,0.2408,0.2429,0.2454,0.2474,0.2496,0.2465,0.2495,0.2495,0.2439,0.2493,0.2281,0.2292,0.2536,0.2537,0.2538,0,0.2132,0.2143,0.2158,0.2186,0.2194,0.2213,0.2264,0.2295,0.2361,0.2395,0.244,0.2461,0.2507,0.2491,0.2542,0.2528,0.2535,0.2543,0.2545,0.2476,0.2453,0.2285,0.2295,0.2549,0.2548,0.2547,0.2546,0,0.2109,0.2135,0.2144,0.2154,0.2193,0.2212,0.2241,0.2304,0.2342,0.2421,0.2465,0.2513,0.2552,0.2575,0.2593,0.2579,0.2646,0.2628,0.2578,0.2574,0.2387,0.2364,0.2658,0.2658,0.2658,0.2657,0.2657,0,0.2096,0.2102,0.2132,0.2136,0.2159,0.2197,0.224,0.2284,0.2362,0.241,0.2477,0.2524,0.2579,0.2621,0.2621,0.2624,0.267,0.2587,0.2586,0.24,0.2379,0.2591,0.2583,0.2659,0.2659,0.2658,0.2658,0,0.2063,0.2082,0.2093,0.2131,0.2145,0.2163,0.2234,0.2266,0.2352,0.2423,0.2454,0.2553,0.2608,0.2646,0.2691,0.2658,0.2666,0.265,0.2422,0.2392,0.2562,0.2556,0.2598,0.2596,0.2595,0.2594,0.2593,0,0.2045,0.2046,0.208,0.2088,0.2103,0.2142,0.2167,0.2252,0.2293,0.2426,0.2452,0.2547,0.2585,0.264,0.2606,0.2598,0.2652,0.239,0.2318,0.2565,0.2559,0.2555,0.2551,0.2091,0.2087,0.2083,0.2079,0,0.2011,0.2024,0.2033,0.205,0.2069,0.2093,0.2139,0.2171,0.227,0.2328,0.2401,0.2447,0.2512,0.241,0.2415,0.2379,0.2375,0.2308,0.2634,0.2145,0.2092,0.2085,0.2097,0.2043,0.2047,0.205,0.2052,0.2053,0.1986,0.1981,0.1994,0.1997,0.2018,0.2023,0.2011,0.2064,0.2103,0.2152,0.2267,0.2257,0.2271,0.2172,0.2097,0.2036,0.22,0.2081,0.2091,0.2106,0.2047,0.1995,0.1916,0.1919,0.1921,0.1923,0.1925,0,0.1938,0.1934,0.1939,0.1927,0.1905,0.1949,0.1966,0.1929,0.1915,0.199,0.2022,0.1861,0.1791,0.1811,0.1658,0.1649,0.1615,0.1578,0.1507,0.1545,0.1578,0.1489,0.1212,0.121,0.1207,0.1205,0,0,0.1915,0.1885,0.1871,0.1806,0.1799,0.174,0.1724,0.1687,0.17,0.1657,0.163,0.1748,0.1781,0.1486,0.1434,0.1297,0.1415,0.1247,0.1822,0.1779,0.1809,0.1874,0.1781,0,0,0,0,0]},{"header":{"parameterUnit":"m.s-1","parameterCategory":2,"la1":30.2991,"la2":30.254,"lo1":-89.0895,"lo2":-89.0444,"dy":0.0017,"dx":0.0017,"nx":28,"ny":28,"refTime":"2024-06-05T09:00:00:Z","depth":"2","parameterNumber":3,"parameterNumberName":"V-component_of_CURRENTS"},"data":[0,0,0,0,0,0,0,0,0,0,0,0,0,0,0,0,0,0,0,0,0,0,0,0,0,0,0,0,0,0,0,0,0,0,0,0,0,0,0,0,0,0,0,0,0,0,0,0,0,0,0,0,0,0,0,0,0,0,0.0219,0.0219,0,0.0203,0.0203,0.0203,0.0188,0.0187,0.0187,0.0187,0.016,0.0159,0.0159,0,0,0,0,0,0,0,0,0,0,0,0,0,0.02,0.0201,0.0219,0.0219,0.0219,0.0203,0.0203,0.0203,0.0188,0.0187,0.0187,0.0187,0.016,0.0159,0.0159,0,0,0,0,0,0,0,0,0,0,0,0,0,0.0199,0.0201,0.0219,0.0209,0.0208,0.0203,0.0203,0.0203,0.0188,0.0187,0.0187,0.0187,0.016,0.0159,0.0159,0.0159,0,0,0.0156,0.0156,0,0,0,0,0,0,0,0,0.0199,0.02,0.0211,0.021,0.0209,0.0197,0.0187,0.0188,0.0188,0.0195,0.0187,0.0187,0.0172,0.017,0.0167,0.0158,0.0157,0.0156,0.0156,0.0155,0.0155,0,0,0,0,0,0,0,0.0199,0.02,0.0213,0.0211,0.021,0.0194,0.0193,0.0187,0.0185,0.0195,0.0193,0.0192,0.0171,0.0168,0.0167,0.0156,0.0156,0.0155,0.0155,0.0155,0.0145,0.0146,0,0,0,0,0,0,0.0204,0.02,0.0213,0.0212,0.0203,0.0194,0.0194,0.0201,0.0185,0.0183,0.0192,0.0191,0.017,0.0168,0.0166,0.0176,0.0155,0.0154,0.0154,0.0145,0.0145,0.0146,0,0,0,0,0,0,0.0204,0.0206,0.0214,0.0205,0.0205,0.0195,0.0203,0.0201,0.02,0.0184,0.0181,0.0194,0.017,0.0167,0.0165,0.0174,0.0154,0.0153,0.0145,0.0145,0.0146,0.019,0,0,0,0,0,0,0.0203,0.0206,0.0211,0.0206,0.0206,0.0218,0.0203,0.0201,0.02,0.0199,0.0184,0.0181,0.0169,0.0167,0.0164,0.0173,0.0153,0.0145,0.0145,0.0145,0.0188,0.0192,0.0195,0,0,0,0,0,0.0203,0.0215,0.0212,0.0213,0.0215,0.0218,0.0217,0.0208,0.02,0.0205,0.0195,0.0182,0.0168,0.0166,0.0164,0.0172,0.0144,0.0145,0.0145,0.0187,0.0191,0.0195,0,0,0,0,0,0,0.0209,0.0214,0.0211,0.0223,0.0223,0.0216,0.0217,0.0212,0.0207,0.0205,0.0188,0.0185,0.0185,0.0172,0.0171,0.017,0.0153,0.0153,0.0185,0.0189,0.0192,0.0204,0.0152,0,0,0,0,0,0.0213,0.0224,0.0223,0.0233,0.0234,0.0226,0.0225,0.0222,0.0217,0.0214,0.0203,0.0191,0.0185,0.0182,0.0173,0.0175,0.0157,0.0177,0.0181,0.0184,0.0191,0.0171,0.0174,0.0148,0.0148,0.0148,0,0,0.0217,0.0222,0.0227,0.0235,0.0232,0.0244,0.0225,0.023,0.0242,0.0212,0.0221,0.0203,0.0188,0.019,0.0189,0.0181,0.018,0.0184,0.0187,0.0193,0.0172,0.0175,0.0177,0.0148,0.0148,0.0148,0,0,0.0235,0.0236,0.0252,0.0256,0.0258,0.0256,0.026,0.0256,0.0256,0.0262,0.0242,0.0231,0.0224,0.0213,0.0209,0.0224,0.0198,0.0219,0.0248,0.0229,0.0231,0.0233,0.021,0.0209,0.0222,0.0222,0.0222,0,0.0238,0.0263,0.0255,0.0273,0.0282,0.0266,0.0287,0.0286,0.0282,0.0286,0.0272,0.0255,0.0237,0.0243,0.0245,0.0233,0.0216,0.0236,0.0234,0.0235,0.0236,0.0212,0.0211,0.0224,0.0224,0.0223,0.0223,0,0.0271,0.0289,0.0299,0.0319,0.0326,0.0341,0.0341,0.0346,0.034,0.0335,0.0335,0.0308,0.0298,0.0287,0.0272,0.0271,0.0254,0.024,0.0226,0.0242,0.0215,0.0213,0.0227,0.0226,0.0226,0.0225,0,0,0.0287,0.0316,0.0322,0.0343,0.0354,0.0368,0.0386,0.0401,0.0418,0.0399,0.0417,0.039,0.0364,0.0356,0.0328,0.031,0.0294,0.0281,0.0279,0.0262,0.025,0.0241,0.0238,0.028,0.028,0.028,0.0227,0,0.0316,0.0363,0.0369,0.0414,0.0439,0.0436,0.0458,0.0466,0.0464,0.0474,0.0441,0.0443,0.0395,0.0391,0.0363,0.0317,0.0291,0.031,0.0233,0.0231,0.0225,0.0236,0.0251,0.0205,0.0225,0.0224,0.0224,0,0.0351,0.0381,0.0432,0.0474,0.0485,0.0506,0.054,0.0561,0.0562,0.0561,0.0545,0.0516,0.0487,0.0445,0.0366,0.038,0.0318,0.0276,0.0272,0.025,0.0219,0.0193,0.02,0.022,0.022,0.0221,0.0221,0,0.0379,0.0427,0.0473,0.0487,0.0528,0.055,0.0571,0.0585,0.0617,0.0617,0.0633,0.0582,0.057,0.0487,0.0388,0.0378,0.0301,0.0275,0.0207,0.0205,0.0196,0.0194,0.0218,0.0218,0.0218,0.0218,0.0218,0,0.0415,0.0453,0.0491,0.0518,0.0578,0.0588,0.0648,0.0659,0.0687,0.0735,0.0679,0.07,0.0581,0.0521,0.0415,0.0308,0.0317,0.0216,0.0195,0.0211,0.0211,0.0206,0.0206,0.0216,0.0217,0.0217,0.0218,0,0.0443,0.0466,0.0524,0.0573,0.0596,0.0639,0.0709,0.0752,0.0766,0.0827,0.0833,0.0792,0.0716,0.0588,0.0459,0.0356,0.0248,0.0204,0.0229,0.0212,0.0154,0.0156,0.0124,0.0124,0.0123,0.0123,0.0122,0,0.0462,0.0494,0.0567,0.0609,0.0635,0.0702,0.0753,0.0791,0.0845,0.089,0.0926,0.0873,0.085,0.0651,0.0466,0.0285,0.0253,0.017,0.0152,0.0164,0.0146,0.0149,0.0152,0.0151,0.0151,0.0151,0.015,0,0.0498,0.0522,0.0572,0.0657,0.072,0.08,0.0875,0.0931,0.0987,0.1036,0.1085,0.1071,0.0891,0.0718,0.0466,0.0337,0.0199,0.0162,0.0172,0.0177,0.0187,0.017,0.0172,0.015,0.015,0.015,0.015,0.015,0.0524,0.0564,0.0629,0.0711,0.0787,0.0887,0.0958,0.1042,0.114,0.1216,0.1197,0.1174,0.0973,0.0658,0.0438,0.0199,0.0212,0.0117,0.0119,0.012,0.0138,0.0146,0.0104,0.0104,0.0104,0.0104,0.0104,0,0.0556,0.0606,0.068,0.0779,0.0862,0.0903,0.1034,0.1109,0.1227,0.1285,0.1321,0.1125,0.093,0.0688,0.0348,0.0148,0.0124,0.0068,0.0088,0.0091,0.0093,0.011,0.0068,0.0067,0.0067,0.0066,0,0,0.0575,0.0646,0.0684,0.0821,0.0894,0.1016,0.1094,0.121,0.1284,0.1342,0.1325,0.1284,0.1005,0.0749,0.0474,0.0276,0.0225,0.0226,0.0278,0.0338,0.0342,0.0145,0.0177,0,0,0,0,0]}],[{"header":{"parameterUnit":"m.s-1","parameterCategory":2,"la1":30.2991,"la2":30.254,"lo1":-89.0895,"lo2":-89.0444,"dy":0.0017,"dx":0.0017,"nx":28,"ny":28,"refTime":"2024-06-05T09:00:00:Z","depth":"4","parameterNumber":2,"parameterNumberName":"U-component_of_CURRENTS"},"data":[0,0,0,0,0,0,0,0,0,0,0,0,0,0,0,0,0,0,0,0,0,0,0,0,0,0,0,0,0,0,0,0,0,0,0,0,0,0,0,0,0,0,0,0,0,0,0,0,0,0,0,0,0,0,0,0,0,0,0.1362,0.1363,0,0.1398,0.1399,0.1399,0.1438,0.1439,0.1439,0.144,0.1493,0.1494,0.1495,0,0,0,0,0,0,0,0,0,0,0,0,0,0.133,0.1331,0.1362,0.1363,0.1363,0.1398,0.1399,0.1399,0.1438,0.1439,0.144,0.144,0.1493,0.1494,0.1495,0,0,0,0,0,0,0,0,0,0,0,0,0,0.1352,0.1331,0.1362,0.1387,0.139,0.1398,0.1399,0.1399,0.1438,0.1439,0.144,0.1441,0.1493,0.1494,0.1495,0.1484,0,0,0.1499,0.1499,0,0,0,0,0,0,0,0,0.1351,0.1353,0.1383,0.1386,0.1389,0.1415,0.1407,0.1429,0.1438,0.1419,0.144,0.1441,0.1468,0.1472,0.1475,0.1487,0.1489,0.1499,0.15,0.15,0.1501,0,0,0,0,0,0,0,0.1349,0.1352,0.1376,0.1384,0.1387,0.1398,0.1402,0.1411,0.1438,0.1421,0.1424,0.1429,0.147,0.1474,0.1477,0.149,0.1499,0.15,0.1501,0.1501,0.1586,0.1588,0,0,0,0,0,0,0.1345,0.135,0.1375,0.1377,0.1373,0.1398,0.1403,0.1405,0.1437,0.1443,0.1428,0.143,0.1471,0.1475,0.1479,0.1552,0.15,0.1501,0.1502,0.1585,0.1587,0.1588,0,0,0,0,0,0,0.1344,0.1347,0.1373,0.1365,0.137,0.1398,0.14,0.1406,0.1439,0.1443,0.1449,0.146,0.1472,0.1477,0.1516,0.1551,0.1502,0.1503,0.1583,0.1585,0.1587,0.1644,0,0,0,0,0,0,0.1343,0.1346,0.1363,0.1365,0.137,0.1395,0.14,0.1406,0.1439,0.1443,0.1471,0.1476,0.1473,0.1515,0.1518,0.1552,0.1504,0.1581,0.1584,0.1587,0.164,0.1647,0.1654,0,0,0,0,0,0.1342,0.1353,0.1363,0.1367,0.1386,0.1396,0.14,0.1422,0.144,0.1456,0.1482,0.1476,0.1535,0.1517,0.152,0.1555,0.158,0.1583,0.1587,0.1637,0.1646,0.1654,0,0,0,0,0,0,0.135,0.1358,0.1369,0.1384,0.1399,0.1403,0.1425,0.1438,0.147,0.1488,0.1492,0.1498,0.1544,0.1542,0.1522,0.1589,0.1558,0.1562,0.1595,0.1604,0.1611,0.1603,0.1505,0,0,0,0,0,0.1358,0.1371,0.1378,0.1395,0.1405,0.1421,0.1436,0.1451,0.1471,0.1488,0.1505,0.153,0.1555,0.1574,0.1588,0.1624,0.162,0.165,0.1657,0.1663,0.166,0.1692,0.1701,0.1599,0.1599,0.1599,0,0,0.1366,0.1374,0.1383,0.1399,0.1415,0.1431,0.1433,0.1463,0.1488,0.1488,0.1537,0.1555,0.1569,0.161,0.1632,0.1618,0.1691,0.1667,0.1672,0.1666,0.1696,0.1706,0.1715,0.1602,0.1601,0.1601,0,0,0.1378,0.1398,0.141,0.1424,0.1452,0.1461,0.1476,0.1497,0.1522,0.1565,0.1575,0.1613,0.165,0.1664,0.1677,0.1731,0.1725,0.1747,0.178,0.1812,0.1821,0.1828,0.1838,0.1845,0.1753,0.1754,0.1754,0,0.1393,0.1404,0.1417,0.1433,0.1451,0.1477,0.1496,0.1522,0.1557,0.1581,0.1593,0.166,0.1674,0.172,0.1744,0.1747,0.1759,0.1747,0.1821,0.1828,0.1835,0.1843,0.1851,0.1757,0.1756,0.1756,0.1756,0,0.1402,0.1426,0.1436,0.1464,0.1486,0.1509,0.1539,0.1575,0.1614,0.1637,0.1701,0.1723,0.1763,0.178,0.1782,0.1839,0.183,0.1824,0.1797,0.1848,0.1854,0.1861,0.1761,0.176,0.1759,0.1758,0,0,0.1395,0.1435,0.1443,0.1461,0.1507,0.1519,0.1573,0.1616,0.1657,0.1706,0.1758,0.1808,0.1828,0.1843,0.1854,0.1884,0.1943,0.1882,0.1883,0.1887,0.2009,0.1872,0.1866,0.196,0.1961,0.1963,0.1994,0,0.1402,0.1431,0.1454,0.1494,0.1509,0.1554,0.1597,0.1647,0.1698,0.1755,0.18,0.1854,0.185,0.1885,0.1916,0.1941,0.1965,0.1935,0.1962,0.1962,0.1831,0.1871,0.1968,0.1999,0.2001,0.2002,0.2003,0,0.1397,0.1419,0.1454,0.1504,0.1518,0.1553,0.1627,0.167,0.1754,0.1801,0.1864,0.1898,0.196,0.195,0.2011,0.1998,0.2008,0.2017,0.2019,0.1872,0.1838,0.1938,0.2015,0.2014,0.2013,0.2013,0.2012,0,0.1365,0.1416,0.1445,0.1463,0.1526,0.1564,0.1609,0.169,0.1736,0.1838,0.1889,0.1955,0.2008,0.2037,0.2061,0.2052,0.2116,0.2101,0.198,0.197,0.2059,0.2051,0.2136,0.2136,0.2136,0.2135,0.2135,0,0.1342,0.1369,0.1439,0.1453,0.1501,0.1556,0.1623,0.1681,0.1774,0.1826,0.1913,0.1956,0.2038,0.2081,0.2086,0.2049,0.2137,0.1983,0.197,0.2082,0.2076,0.2064,0.2055,0.2137,0.2136,0.2136,0.2136,0,0.1294,0.134,0.1378,0.1456,0.1485,0.1524,0.1626,0.1666,0.1769,0.1844,0.1884,0.1987,0.2034,0.2083,0.2132,0.2066,0.2054,0.2018,0.2132,0.2127,0.1879,0.1874,0.1877,0.1872,0.1868,0.1865,0.1863,0,0.1265,0.1281,0.1371,0.1399,0.144,0.1509,0.1552,0.1657,0.1698,0.1836,0.1857,0.1952,0.2002,0.1956,0.2018,0.2008,0.1983,0.1957,0.191,0.1866,0.1854,0.1855,0.1854,0.1856,0.1855,0.1854,0.1853,0,0.1212,0.1261,0.1293,0.1352,0.1402,0.1446,0.1517,0.1537,0.165,0.1761,0.1782,0.1799,0.1846,0.1866,0.1875,0.1865,0.1963,0.1916,0.1924,0.1879,0.1841,0.1834,0.1837,0.184,0.1842,0.1843,0.1844,0,0.1181,0.1192,0.1246,0.1282,0.1344,0.1357,0.1406,0.1442,0.1493,0.1636,0.1637,0.1732,0.1827,0.1791,0.18,0.178,0.1745,0.1674,0.1694,0.1709,0.1638,0.1564,0.1465,0,0,0,0,0,0.1138,0.1135,0.1167,0.1194,0.125,0.1284,0.1365,0.1415,0.1524,0.1494,0.1559,0.1589,0.1596,0.1645,0.1588,0.1726,0.1757,0.1651,0.1687,0.1766,0.1781,0.1712,0,0,0,0,0,0,0.1108,0.1137,0.1135,0.1111,0.1114,0.1158,0.1207,0.1281,0.1268,0.1386,0.1399,0.1484,0.1519,0.1611,0.1556,0.1569,0.1555,0.1711,0.1706,0.1757,0.1771,0.1784,0.1717,0,0,0,0,0]},{"header":{"parameterUnit":"m.s-1","parameterCategory":2,"la1":30.2991,"la2":30.254,"lo1":-89.0895,"lo2":-89.0444,"dy":0.0017,"dx":0.0017,"nx":28,"ny":28,"refTime":"2024-06-05T09:00:00:Z","depth":"4","parameterNumber":3,"parameterNumberName":"V-component_of_CURRENTS"},"data":[0,0,0,0,0,0,0,0,0,0,0,0,0,0,0,0,0,0,0,0,0,0,0,0,0,0,0,0,0,0,0,0,0,0,0,0,0,0,0,0,0,0,0,0,0,0,0,0,0,0,0,0,0,0,0,0,0,0,0.0188,0.0188,0,0.0181,0.0181,0.0181,0.0177,0.0176,0.0176,0.0176,0.0163,0.0163,0.0163,0,0,0,0,0,0,0,0,0,0,0,0,0,0.0172,0.0173,0.0188,0.0188,0.0188,0.0181,0.0181,0.0181,0.0177,0.0176,0.0176,0.0176,0.0164,0.0163,0.0163,0,0,0,0,0,0,0,0,0,0,0,0,0,0.0174,0.0173,0.0188,0.0185,0.0184,0.0181,0.0181,0.0181,0.0177,0.0176,0.0176,0.0176,0.0164,0.0163,0.0163,0.0161,0,0,0.0161,0.0161,0,0,0,0,0,0,0,0,0.0174,0.0174,0.0185,0.0185,0.0185,0.018,0.0171,0.0174,0.0177,0.0179,0.0176,0.0176,0.0168,0.0168,0.0166,0.016,0.016,0.0161,0.0161,0.0161,0.0161,0,0,0,0,0,0,0,0.0173,0.0174,0.0185,0.0185,0.0185,0.0175,0.0176,0.0171,0.0174,0.0179,0.0179,0.0178,0.0168,0.0167,0.0166,0.016,0.0161,0.0161,0.0161,0.016,0.0157,0.0157,0,0,0,0,0,0,0.0176,0.0174,0.0186,0.0185,0.0179,0.0176,0.0176,0.0181,0.0174,0.0173,0.0178,0.0178,0.0168,0.0167,0.0166,0.0178,0.0161,0.016,0.016,0.0157,0.0157,0.0157,0,0,0,0,0,0,0.0176,0.0177,0.0186,0.0179,0.018,0.0176,0.0182,0.0181,0.0184,0.0174,0.0173,0.0183,0.0168,0.0166,0.0168,0.0177,0.016,0.016,0.0157,0.0157,0.0157,0.0193,0,0,0,0,0,0,0.0175,0.0177,0.0183,0.018,0.018,0.019,0.0182,0.0181,0.0184,0.0183,0.0177,0.0175,0.0168,0.0168,0.0167,0.0176,0.0159,0.0156,0.0157,0.0157,0.0191,0.0194,0.0197,0,0,0,0,0,0.0175,0.0184,0.0183,0.0185,0.0188,0.0191,0.019,0.0187,0.0184,0.0189,0.0184,0.0176,0.017,0.0168,0.0167,0.0175,0.0156,0.0157,0.0157,0.019,0.0194,0.0196,0,0,0,0,0,0,0.0179,0.0184,0.0183,0.0193,0.0195,0.019,0.0193,0.0191,0.0191,0.0191,0.018,0.0179,0.0182,0.0173,0.0172,0.0174,0.0161,0.0161,0.0186,0.0189,0.0192,0.0202,0.0159,0,0,0,0,0,0.0183,0.0192,0.0193,0.0201,0.0202,0.0199,0.0199,0.0199,0.0197,0.0197,0.0191,0.0185,0.0182,0.0181,0.0176,0.0179,0.0164,0.0182,0.0185,0.0187,0.0194,0.0176,0.0178,0.0159,0.0159,0.0159,0,0,0.0187,0.0191,0.0196,0.0203,0.0202,0.0213,0.0199,0.0205,0.0217,0.0195,0.0207,0.0194,0.0184,0.0189,0.0189,0.0183,0.0184,0.0188,0.019,0.0196,0.0177,0.0179,0.0181,0.0159,0.0159,0.0159,0,0,0.0201,0.0203,0.0216,0.022,0.0225,0.0224,0.0228,0.0227,0.023,0.0237,0.0224,0.0217,0.0215,0.0208,0.0205,0.0218,0.0198,0.0215,0.024,0.0222,0.0224,0.0225,0.0204,0.0203,0.0218,0.0218,0.0218,0,0.0205,0.0224,0.0219,0.0234,0.0243,0.0232,0.0251,0.0252,0.0252,0.0256,0.0247,0.0239,0.0226,0.0233,0.0235,0.0226,0.0211,0.023,0.0226,0.0227,0.0228,0.0206,0.0204,0.0219,0.0219,0.0219,0.0219,0,0.0229,0.0246,0.0254,0.0271,0.0279,0.0292,0.0294,0.0301,0.03,0.0298,0.0303,0.0282,0.0277,0.0269,0.0257,0.0257,0.0243,0.0231,0.022,0.0232,0.0208,0.0206,0.0222,0.0221,0.0221,0.022,0,0,0.0239,0.0267,0.0272,0.0291,0.0302,0.0314,0.0332,0.0347,0.0363,0.0352,0.0369,0.035,0.0332,0.0327,0.0305,0.0289,0.0273,0.0265,0.0263,0.0247,0.0233,0.0216,0.0212,0.0261,0.0261,0.0261,0.0213,0,0.0263,0.0302,0.0309,0.0348,0.0369,0.0371,0.0391,0.0401,0.0403,0.0413,0.0389,0.0394,0.0357,0.0357,0.0332,0.0292,0.027,0.0287,0.022,0.0219,0.0205,0.0209,0.0261,0.0211,0.021,0.021,0.021,0,0.0288,0.0314,0.0358,0.0397,0.0407,0.0428,0.0462,0.0481,0.0486,0.0486,0.0477,0.0455,0.0432,0.0399,0.0332,0.0345,0.0292,0.0255,0.0252,0.0225,0.0198,0.0196,0.0205,0.0206,0.0206,0.0206,0.0207,0,0.0306,0.035,0.039,0.0403,0.0442,0.0466,0.0487,0.0503,0.0531,0.0535,0.0548,0.0509,0.05,0.0431,0.0345,0.034,0.0268,0.025,0.0184,0.0182,0.0196,0.0195,0.0201,0.0201,0.0201,0.0201,0.0201,0,0.033,0.0364,0.0405,0.0428,0.0483,0.0497,0.0552,0.0565,0.0592,0.0627,0.0588,0.0598,0.0508,0.0453,0.0365,0.0268,0.0279,0.0191,0.0171,0.0211,0.0212,0.0194,0.0193,0.0199,0.02,0.02,0.02,0,0.0345,0.037,0.0421,0.0472,0.0495,0.0535,0.0603,0.0639,0.0655,0.07,0.0706,0.0668,0.0596,0.0496,0.0385,0.0302,0.0207,0.0168,0.022,0.0203,0.0127,0.0129,0.0094,0.0093,0.0092,0.0091,0.0091,0,0.0355,0.0383,0.0455,0.0493,0.0521,0.0584,0.0631,0.0671,0.071,0.0741,0.0761,0.0713,0.0669,0.0502,0.0388,0.0223,0.0193,0.0137,0.0128,0.0133,0.0117,0.012,0.0123,0.009,0.0089,0.0089,0.0089,0,0.0373,0.04,0.0444,0.0521,0.058,0.065,0.0716,0.0748,0.0795,0.0811,0.0805,0.0724,0.0642,0.0505,0.0378,0.0257,0.0171,0.0128,0.0129,0.012,0.0127,0.0113,0.0117,0.0086,0.0087,0.0087,0.0087,0,0.0387,0.0418,0.0476,0.0546,0.0621,0.0692,0.0728,0.0774,0.0815,0.0841,0.0836,0.0748,0.0701,0.0523,0.0406,0.0286,0.0249,0.0196,0.0192,0.0194,0.0231,0.0256,0.0241,0,0,0,0,0,0.0397,0.0434,0.0496,0.0574,0.0647,0.0694,0.0776,0.0805,0.0848,0.0847,0.0844,0.0765,0.0599,0.0531,0.0408,0.038,0.0222,0.0229,0.0157,0.0071,0.0074,0.0099,0,0,0,0,0,0,0.0403,0.046,0.0493,0.0584,0.0637,0.0724,0.0777,0.0808,0.0808,0.0827,0.0743,0.0714,0.0555,0.0666,0.0399,0.0365,0.0297,0.0159,0.0155,0.0069,0.0072,0.0074,0.0101,0,0,0,0,0]}]]